Location: Ferintosh
(52.7647°N, 112.9692°W)
Time: 19:48:59
(UTC+00:00)

Explorer 7 - Pass Details

Date: 28 May 2024
Orbit: 466 x 622 km, 50.3° (Epoch: 16 June)

Event Time Altitude Azimuth Distance (km) Brightness Sun altitude
Rises 03:58:28 0° 208° (SSW) 2,493 10.0 -2.8°
Reaches altitude 10° 04:01:06 10° 187° (S) 1,632 8.9 -3.1°
Maximum altitude 04:03:35 17° 145° (SE) 1,259 8.1 -3.4°
Drops below altitude 10° 04:06:08 10° 102° (ESE) 1,674 8.8 -3.7°
Sets 04:08:53 0° 82° (E) 2,587 9.9 -4.0°
